Back to catalog

COSMOS 2529

GLONASS

AliveNavigationMEO
NORAD 43687·PAYLOAD·🇷🇺 Russia

Launched Nov 3, 2018 from Plesetsk Cosmodrome

Loading…

Next Passes (next 24 hours)

TLE

FreshSource: CelesTrak SupGP

Epoch: Sep 13, 2026, 23:59 UTC

1 43687C 18086A   26256.99979167  .00000000  00000+0  00000+0 0  2563
2 43687  64.2959 189.5981 0010199 254.5116 204.0965  2.13102042    12

Track COSMOS 2529 in real time with AllMySat

Download on the App Store